Regional Weather Roundup
Issued by NWS Charleston, SC

Current Version | Previous Version | Graphics & Text | Print | Product List | Glossary On
Versions: 1 2 3 4 5 6 7 8 9 10 11 12 13 14 15 16 17 18 19 20 21 22 23 24 25 26 27 28 29 30 31 32 33 34 35 36 37 38 39 40 41 42 43 44 45 46 47 48 49 50
000 ASUS42 KCHS 122128 RWRCHS REGIONAL WEATHER ROUNDUP NATIONAL WEATHER SERVICE CHARLESTON SC 400 PM EST FRI FEB 12 2016 NOTE: "FAIR" INDICATES FEW OR NO CLOUDS BELOW 12,000 FEET WITH NO SIGNIFICANT WEATHER AND/OR OBSTRUCTIONS TO VISIBILITY. NOT ALL STATIONS ARE QUALITY CONTROLLED BY THE NATIONAL WEATHER SERVICE. USE DATA WITH CAUTION...ESPECIALLY DEWPOINT OBSERVATIONS. SCZ027-030-031-034>040-042>050-122200- ...SOUTHEAST SOUTH CAROLINA... CITY SKY/WX TMP DP RH WIND PRES REMARKS N CHARLESTON CLOUDY 55 49 80 NW7 30.02S WATERFRONT PRK N/A 48 48 100 CALM 29.87S MOUNT PLEASANT CLOUDY 52 48 87 CALM 30.03R JOHNS ISLAND CLOUDY 54 52 94 CALM 30.02S FOG PINOPOLIS N/A 48 43 81 VRB2 29.94F MONCKS CORNER CLOUDY 46 39 76 N5 30.03S SUMMERVILLE CLOUDY 52 46 82 CALM 30.04S BEAUFORT MCAS CLOUDY 61 51 70 NW9 30.02S BEAUFORT ARPT CLOUDY 59 52 77 NW7 30.01S HILTON HEAD IS PTSUNNY 63 54 72 N6 30.02F WALTERBORO CLOUDY 55 50 82 NW6 30.03S ALLENDALE FAIR 57 48 72 VRB3 30.01F ...SOUTHERN MIDLANDS AND PEE DEE... CITY SKY/WX TMP DP RH WIND PRES REMARKS GEORGETOWN CLOUDY 46 36 66 NW5 30.04R KINGSTREE FAIR 45 28 53 NW3 30.04S ORANGEBURG SUNNY 55 37 50 VRB3 30.02F BARNWELL FAIR 59 43 55 CALM 30.02S AIKEN FAIR 54 34 47 W5 30.05S MANNING CLOUDY 45 28 53 CALM 30.04F COLUMBIA SUNNY 51 29 42 W6 30.03F SUMTER MOSUNNY 45 25 44 E3 30.01F FLORENCE CLOUDY 39 24 55 N5 30.05F WCI 36 MYRTLE BEACH NOT AVBL N MYRTLE BEACH CLOUDY 42 27 55 NW7 30.03R $$ GAZ063-065-086>088-099>101-113>116-118-119-134>141-150-122200- ...SOUTHEAST GEORGIA... CITY SKY/WX TMP DP RH WIND PRES REMARKS SAVANNAH ARPT CLOUDY 68 53 58 W15G29 30.01F HUNTER AAF MOSUNNY 69 55 59 W17G24 29.99S FORT STEWART PTSUNNY 68 53 58 W18G30 30.00S STATESBORO PTSUNNY 68 47 46 NW10G18 30.02F SYLVANIA CLEAR 63 54 71 W9 30.03F CLAXTON MOCLDY 66 55 66 SW13G20 30.03S ...CSRA...CENTRAL AND FAR SOUTHEAST GEORGIA... CITY SKY/WX TMP DP RH WIND PRES REMARKS THOMSON SUNNY 59 40 47 CALM 30.08R AUGUSTA-BUSH SUNNY 58 37 45 NW8 30.02F AUGUSTA-DANIEL SUNNY 56 36 47 VRB7 30.03F SWAINSBORO FAIR 63 50 63 W7 30.03F VIDALIA MOSUNNY 64 52 63 W8 30.04S EASTMAN FAIR 67 51 57 W9G16 30.06F HAZLEHURST FAIR 68 53 57 W6G16 30.04S ALMA SUNNY 71 52 50 W14G22 30.04S WAYCROSS PTSUNNY 76 56 49 NW13G18 30.03S JESUP FAIR 73 55 53 NW14 30.03S BAXLEY FAIR 72 54 53 W12 30.04S BRUNSWICK PTSUNNY 72 54 53 W10 30.03S SAINT SIMONS PTSUNNY 73 50 44 W10G23 30.02F $$ SCZ027-028-034-036>038-045-046-048>050-GAZ119-141-122200- ...LAKE AND SUPPLEMENTAL COASTAL OBSERVATIONS... STATION/POSITION TIME TEMP WIND PRES WAVE SWELL AIR SEA DIR/SP/G HT/PER HT/PER/DIR (UTC) (F) (DEG/KT/KT) (MB) (FT/S) (FT/S/D) WINYAH BAY 2045 47 330/ 5 1015.0S LAKE MURRAY 2000 45 210/ 7/ 8 1016.9F ACE BASIN NERRS 2000 58 320/ 3 1016.0F FORT PULASKI 2100 67 50 260/ 12/ 15 1016.2F SAPELO ISLAND 2100 70 270/ 12 1016.0F $$ ANZ835-935-AMZ111-154-330-350-352-354-370-450-454-472-122200- ...C-MAN AND BUOY OBSERVATIONS... STATION/POSITION TIME TEMP WIND PRES WAVE SWELL AIR SEA DIR/SP/G HT/PER HT/PER/DIR (UTC) (F) (DEG/KT/KT) (MB) (FT/S) (FT/S/D) BUOY 41004 2050 56 67 280/ 12/ 14 1015.8F 5/ 6 3/ 6 BUOY 41008 2050 59 54 240/ 2/ 4 1017.1F 3/ 6 2/150/ 6 FOLLY BEACH CMAN 2100 48 50/ 3/ 3 1016.7R CAPERS NEARSHORE 2008 47 70/ 4/ 6 1016.5F FRIPP NEARSHORE 2000 55 230/ 10/ 12 1016.3F STATION/POSITION TIME TEMP WIND PRES WAVE SWELL AIR SEA DIR/SP/G HT/PER HT/PER/DIR (UTC) (F) (DEG/KT/KT) (MB) (FT/S) (FT/S/D) 5E ST. MARYS GA 2021 56 N/A 3/ 4 FRYING PAN BUOY 2100 46 53 350/ 16/ 19 1015.6R BUOY 41025 2050 45 60 20/ 23/ 27 1014.0F 5/ 5 2/ 90/ 9 CAPE LOOKOUT NC NOT AVBL BUOY 41002 2050 67 68 240/ 31/ 39 N/A 13/ 8 BUOY 41010 2020 69 72 1021.8F ST AUGUSTINE FL 2100 73 58 240/ 16/ 22 1019.2F $$

USA.gov is the U.S. government's official web portal to all federal, state and local government web resources and services.